Location: Vista Encantada
(35.1109°N, 106.5681°W)
Time: 09:22:51
(UTC+00:00)

Cosmos 1626 Rocket - Pass Details

Date: 29 October 2020
Orbit: 602 x 632 km, 82.5° (Epoch: 05 December)

Event Time Altitude Azimuth Distance (km) Brightness Sun altitude
Rises 12:38:05 0° 192° (SSW) 2,901 7.0 -10.2°
Reaches altitude 10° 12:40:19 10° 195° (SSW) 2,001 6.1 -9.8°
Maximum altitude 12:44:44 66° 277° (W) 689 3.6 -8.9°
Drops below altitude 10° 12:49:11 10° 1° (N) 2,019 6.1 -8.0°
Sets 12:51:27 0° 4° (N) 2,930 6.9 -7.5°
